Hilton Head Island, SC

3:19 PM EDT on July 23, 2017 (GMT -0400)
Hilton Head

Weather History for KHXD - December, 2013

Change the Weather History Date:

Sunday, December 1, 2013

  Actual Average Record
Temperature  
Mean Temperature 52 °F -  
Max Temperature 57 °F 64 °F 81 °F (1982)
Min Temperature 48 °F 43 °F 23 °F (1979)
Degree Days  
Heating Degree Days 12    
Growing Degree Days 2 (Base 50)    
Moisture  
Dew Point 47 °F    
Average Humidity 84    
Maximum Humidity 100    
Minimum Humidity 72    
Precipitation  
Precipitation 0.00 in - - ()
Sea Level Pressure  
Sea Level Pressure 30.18 in    
Wind  
Wind Speed 6 mph (North)    
Max Wind Speed 12 mph    
Max Gust Speed -    
Visibility 9 miles    
Events      
Averages and records for this station are not official NWS values.
T = Trace of Precipitation, MM = Missing Value Source: NWS Daily Summary

Daily Weather History Graph

Daily Weather History Graph

Search for Another Location

Airport or City:

Trip Planner

Search our weather history database for the weather conditions in past years. The results will help you decide how hot, cold, wet, or windy it might be!

Date:

Astronomy

Dec. 01, 2013 Rise Set
Actual Time 7:06 AM EST 5:17 PM EST
Civil Twilight 6:39 AM EST 5:44 PM EST
Nautical Twilight 6:09 AM EST 6:14 PM EST
Astronomical Twilight 5:39 AM EST 6:44 PM EST
Moon 5:27 AM EST (12/1) 4:22 PM EST (12/1)
Length of Visible Light 11h 04m
Length of Day
10h 11m
Waning Crescent, 2% of the Moon is Illuminated
Dec 1
Waning Crescent
Dec 2
New
Dec 9
First Quarter
Dec 17
Full
Dec 25
Last Quarter

Hourly Weather History & Observations

Time (EST) Temp. Dew Point Humidity Pressure Visibility Wind Dir Wind Speed Gust Speed Precip Events Conditions
12:15 AM 50.0 °F 42.8 °F 76% 30.32 in 10.0 mi North 5.8 mph - 0.00 in   Clear
12:35 AM 50.0 °F 42.8 °F 76% 30.31 in 10.0 mi North 6.9 mph - 0.00 in   Clear
12:55 AM 50.0 °F 42.8 °F 76% 30.30 in 10.0 mi North 8.1 mph - 0.00 in   Clear
1:15 AM 50.0 °F 42.8 °F 76% 30.30 in 10.0 mi North 8.1 mph - 0.00 in   Mostly Cloudy
1:35 AM 50.0 °F 42.8 °F 76% 30.29 in 10.0 mi North 5.8 mph - 0.00 in   Scattered Clouds
1:55 AM 50.0 °F 42.8 °F 76% 30.29 in 10.0 mi North 9.2 mph - 0.00 in   Scattered Clouds
2:15 AM 51.8 °F 44.6 °F 76% 30.28 in 10.0 mi North 6.9 mph - 0.00 in   Mostly Cloudy
2:35 AM 51.8 °F 44.6 °F 76% 30.27 in 10.0 mi North 4.6 mph - 0.00 in   Mostly Cloudy
2:55 AM 51.8 °F 44.6 °F 76% 30.27 in 10.0 mi North 4.6 mph - 0.00 in   Mostly Cloudy
3:15 AM 51.8 °F 44.6 °F 76% 30.27 in 10.0 mi North 6.9 mph - 0.00 in   Mostly Cloudy
3:35 AM 51.8 °F 44.6 °F 76% 30.26 in 10.0 mi North 6.9 mph - 0.00 in   Mostly Cloudy
3:55 AM 51.8 °F 44.6 °F 76% 30.25 in 10.0 mi North 9.2 mph - 0.00 in   Overcast
4:15 AM 51.8 °F 44.6 °F 76% 30.25 in 10.0 mi North 9.2 mph - 0.00 in   Overcast
4:35 AM 51.8 °F 44.6 °F 76% 30.25 in 10.0 mi North 8.1 mph - 0.00 in   Overcast
4:55 AM 50.0 °F 44.6 °F 82% 30.25 in 10.0 mi North 8.1 mph - 0.00 in   Overcast
5:15 AM 50.0 °F 44.6 °F 82% 30.25 in 10.0 mi North 10.4 mph - 0.00 in   Scattered Clouds
5:35 AM 50.0 °F 44.6 °F 82% 30.25 in 10.0 mi NNW 8.1 mph - 0.00 in   Clear
7:50 AM 50.0 °F 44.6 °F 82% 30.25 in 10.0 mi North 11.5 mph - N/A   Partly Cloudy
8:50 AM 50.0 °F 44.6 °F 82% 30.25 in 10.0 mi North 6.9 mph - N/A   Mostly Cloudy
9:50 AM 51.8 °F 46.4 °F 82% 30.25 in 10.0 mi NNW 6.9 mph - N/A   Mostly Cloudy
10:50 AM 53.6 °F 46.4 °F 77% 30.23 in 10.0 mi North 9.2 mph - N/A   Mostly Cloudy
11:50 AM 55.4 °F 46.4 °F 72% 30.21 in 10.0 mi North 9.2 mph - N/A   Mostly Cloudy
12:23 PM 57.2 °F 48.2 °F 72% 30.19 in 10.0 mi North 9.2 mph - N/A   Overcast
1:50 PM 55.4 °F 48.2 °F 77% 30.16 in 10.0 mi North 5.8 mph - N/A   Overcast
2:50 PM 57.2 °F 51.8 °F 82% 30.13 in 10.0 mi NW 5.8 mph - N/A   Overcast
3:50 PM 57.2 °F 51.8 °F 82% 30.12 in 10.0 mi North 5.8 mph - N/A   Overcast
4:50 PM 57.2 °F 51.8 °F 82% 30.11 in 10.0 mi Calm Calm - N/A   Mostly Cloudy
5:45 PM 57.2 °F 51.8 °F 82% 30.10 in 10.0 mi Calm Calm - N/A   Overcast
6:50 PM 55.4 °F 51.8 °F 88% 30.10 in 10.0 mi Calm Calm - N/A   Overcast
7:50 PM 53.6 °F 51.8 °F 94% 30.09 in 8.0 mi Calm Calm - N/A   Partly Cloudy
8:15 PM 53.6 °F 51.8 °F 94% 30.09 in 8.0 mi Calm Calm - 0.00 in   Clear
8:35 PM 51.8 °F 51.8 °F 100% 30.08 in 7.0 mi Calm Calm - 0.00 in   Clear
8:55 PM 51.8 °F 50.0 °F 94% 30.08 in 6.0 mi Calm Calm - 0.00 in   Clear
9:15 PM 51.8 °F 50.0 °F 94% 30.06 in 5.0 mi Calm Calm - 0.00 in   Clear
9:35 PM 51.8 °F 50.0 °F 94% 30.07 in 5.0 mi Calm Calm - 0.00 in   Clear
9:55 PM 50.0 °F 48.2 °F 94% 30.06 in 5.0 mi Calm Calm - 0.00 in   Clear
10:15 PM 50.0 °F 48.2 °F 94% 30.05 in 5.0 mi Calm Calm - 0.00 in   Clear
10:35 PM 48.2 °F 48.2 °F 100% 30.05 in 5.0 mi Calm Calm - 0.00 in   Clear
10:55 PM 48.2 °F 48.2 °F 100% 30.05 in 5.0 mi Calm Calm - 0.00 in   Clear
11:15 PM 48.2 °F 48.2 °F 100% 30.05 in 5.0 mi Calm Calm - 0.00 in   Clear
11:35 PM 48.2 °F 48.2 °F 100% 30.04 in 5.0 mi Calm Calm - 0.00 in   Clear
11:55 PM 48.2 °F 48.2 °F 100% 30.04 in 5.0 mi Calm Calm - 0.00 in   Clear